Regional Weather Roundup
Issued by NWS

Home | Current Version | Previous Version | Text Only | Print | Product List | Glossary Off
Versions: 1 2 3 4 5 6 7 8 9 10 11 12 13 14 15 16 17 18 19 20 21 22 23 24 25 26 27 28 29 30 31 32 33 34 35 36 37 38 39 40 41 42 43 44 45 46 47 48 49 50

000
ASUS43 KOAX 271410
RWRNE

WEATHER ROUNDUP FOR NEBRASKA
NATIONAL WEATHER SERVICE OMAHA NE
900 AM CDT MON MAR 27 2017

NOTES: SATELLITE DATA IS BEING USED TO AUGMENT CLOUD COVER ABOVE
       12000 FEET.
       "FAIR" INDICATES FEW OR NO CLOUDS BELOW 12,000 FEET WITH NO
       SIGNIFICANT WEATHER AND/OR OBSTRUCTIONS TO VISIBILITY.

  * THESE STATIONS DO NOT REPORT WEATHER SUCH AS RAIN...SNOW OR FOG.

NEZ001>004-019>022-054>056-271500-
NEBRASKA PANHANDLE

CITY           SKY/WX    TMP DP  RH WIND       PRES   REMARKS
SCOTTSBLUFF    SUNNY     32  30  92 E5        29.91S WCI  27
ALLIANCE       FOG       29  29 100 S3        29.91R VSB 1/4
CHADRON        PTSUNNY   30  28  92 CALM      29.89S FOG
KIMBALL        MOSUNNY   33  33  99 W7        29.94R WCI  27
SIDNEY         SUNNY     32  31  96 W3        29.93R
$$

NEZ057>060-069>072-079>082-271500-
SOUTHWEST NEBRASKA

CITY           SKY/WX    TMP DP  RH WIND       PRES   REMARKS
NORTH PLATTE   FOG       37  36  96 CALM      29.95R VSB<1/4
IMPERIAL       SUNNY     38  34  85 NW5       29.94S WCI  34
LEXINGTON      FOG       41  39  95 SE3       29.97R VSB 1/4
MCCOOK         SUNNY     36  36 100 SW3       29.96R
OGALLALA       SUNNY     35  34  95 CALM      29.94S
$$

NEZ005>010-023>029-035>040-094-271500-
NORTH CENTRAL NEBRASKA

CITY           SKY/WX    TMP DP  RH WIND       PRES   REMARKS
VALENTINE      CLOUDY    38  37  97 S5        29.94F FOG     WCI  34
AINSWORTH      CLOUDY    39  39 100 CALM      29.95F FOG
BROKEN BOW     CLOUDY    42  32  67 E3        29.95R
O`NEILL        PTSUNNY   41  38  91 CALM      29.97R
ORD            CLOUDY    43  39  86 CALM      29.96R
THEDFORD       FOG       40  39  99 CALM      29.96R VSB<1/4
$$

NEZ041-046>049-061>064-073>077-083>087-271500-
SOUTH CENTRAL NEBRASKA

CITY           SKY/WX    TMP DP  RH WIND       PRES   REMARKS
GRAND ISLAND   CLOUDY    43  43 100 NE5       29.97S
AURORA         CLOUDY    42  42  99 NE6       29.98R FOG
HASTINGS       CLOUDY    44  41  89 NE8       29.98R
HEBRON         CLOUDY    44  43  97 N6        29.97R FOG
HOLDREGE       FOG       40  39  97 CALM      29.96R VSB<1/4
KEARNEY *      CLOUDY    45  39  81 E5        29.96S
YORK           CLOUDY    43  43 100 NE5       29.98R
$$

NEZ011>018-030>034-042>045-271500-
NORTHEAST NEBRASKA

CITY           SKY/WX    TMP DP  RH WIND       PRES   REMARKS
NORFOLK        CLOUDY    44  40  85 CALM      29.96S
ALBION         CLOUDY    44  41  89 CALM      29.97R
BLAIR          CLOUDY    44  40  88 NE7       29.96R
FREMONT        CLOUDY    44  42  93 CALM      29.98R
TEKAMAH        CLOUDY    44  41  89 N10       29.97R
WAYNE          CLOUDY    43  42  96 CALM      29.97R
$$

NEZ050>053-065>068-078-088>093-271500-
SOUTHEAST NEBRASKA

CITY           SKY/WX    TMP DP  RH WIND       PRES   REMARKS
LINCOLN        CLOUDY    44  41  89 N9        29.98R
OMAHA EPPLEY   CLOUDY    45  39  79 NW5       29.96R
BEATRICE       CLOUDY    45  44  98 N6        29.96R FOG
FALLS CITY     CLOUDY    47  43  86 N9        29.92R
NEBRASKA CITY  CLOUDY    44  43  96 N10       29.95R
PLATTSMOUTH    CLOUDY    44  40  84 N7        29.95R
$$

NEZ044-045-051>053-067-271500-
OMAHA AREA

CITY           SKY/WX    TMP DP  RH WIND       PRES   REMARKS
OMAHA EPPLEY   CLOUDY    45  39  79 NW5       29.96R
BLAIR          CLOUDY    44  40  88 NE7       29.96R
FREMONT        CLOUDY    44  42  93 CALM      29.98R
MILLARD        CLOUDY    46  41  82 NE3       29.96S
OFFUTT AFB     CLOUDY    45  39  81 NE5       29.95R
PLATTSMOUTH    CLOUDY    44  40  84 N7        29.95R
WAHOO          CLOUDY    44  41  91 CALM      29.97R
$$




USA.gov is the U.S. government's official web portal to all federal, state and local government web resources and services.